Date String (YYYY-MM-DD hh:mm:ss) UTC,Instrument flags,absolute air pressure of the measurement (hPa),sample flow rate (lpm),inlet stack bypass flow (lpm),air temperature of the measurement (°C),ambient temperature measured by the external sensor (°C),aerosol sample conditioner tube jacket temperature (°C),OPC LED temperature (°C),internal box temperature (°C),relative humidity of the measurement (%),span deviation,mass concentration of particles derived from Lorenz-Mie calculation of OPC scattering (μg/m³),mass concentration of particles derived from Lorenz-Mie calculation of OPC scattering (μg/m³),mass concentration of particles derived from Lorenz-Mie calculation of OPC scattering (μg/m³)
DateTimeUTC,F1_M11,P_M11,Q1_M11,Q2_M11,T1_M11,T2_M11,T3_M11,T4_M11,T5_M11,U1_M11,ZSPAN_M11,X0_M11,X2_M11,X1_M11
2024-01-31 08:00:00,SystemResetWarning,0832.1,5.00,000.00,023.6,022.3,000.0,031.9,024.9,09.7,0000.0,0010.08,0004.40,0003.88
2024-01-31 08:01:00,SystemResetWarning,0832.1,5.00,000.00,023.5,022.3,000.0,031.9,024.9,09.7,0000.0,0009.67,0004.35,0003.86
2024-01-31 08:02:00,SystemResetWarning,0832.1,5.00,000.00,023.5,022.3,000.0,031.9,024.9,09.8,0000.0,0009.63,0004.32,0003.84
2024-01-31 08:03:00,SystemResetWarning,0832.1,5.00,000.00,023.5,022.3,000.0,031.9,024.9,09.8,0000.0,0009.94,0004.36,0003.84
2024-01-31 08:04:00,SystemResetWarning,0832.1,5.00,000.00,023.5,022.2,000.0,031.9,024.9,09.6,0000.0,0010.70,0004.35,0003.83
2024-01-31 08:05:00,SystemResetWarning,0832.0,5.00,000.00,023.5,022.3,000.0,031.9,024.9,09.5,0000.0,0010.21,0004.33,0003.82
2024-01-31 08:06:00,SystemResetWarning,0832.0,5.00,000.00,023.5,022.2,000.0,031.9,024.9,09.4,0000.0,0010.12,0004.31,0003.82
2024-01-31 08:07:00,SystemResetWarning,0832.0,5.00,000.00,023.5,022.2,000.0,031.9,024.9,09.6,0000.0,0009.39,0004.30,0003.81
2024-01-31 08:08:00,SystemResetWarning,0832.0,5.00,000.00,023.5,022.2,000.0,031.9,024.9,09.6,0000.0,0009.01,0004.26,0003.78
2024-01-31 08:09:00,SystemResetWarning,0832.0,5.00,000.00,023.5,022.2,000.0,031.9,024.9,09.6,0000.0,0008.96,0004.21,0003.74
2024-01-31 08:10:00,SystemResetWarning,0831.9,5.00,000.00,023.5,022.2,000.0,031.9,024.9,09.6,0000.0,0008.84,0004.14,0003.68
2024-01-31 08:11:00,SystemResetWarning,0831.9,5.00,000.00,023.5,022.2,000.0,031.9,024.9,09.6,0000.0,0009.62,0004.11,0003.62
2024-01-31 08:12:00,SystemResetWarning,0831.9,5.00,000.00,023.4,022.2,000.0,031.8,024.8,09.7,0000.0,0009.60,0004.06,0003.57
2024-01-31 08:13:00,SystemResetWarning,0831.9,5.00,000.00,023.4,022.2,000.0,031.8,024.8,09.8,0000.0,0009.91,0003.99,0003.51
2024-01-31 08:14:00,SystemResetWarning,0831.9,5.00,000.00,023.4,022.2,000.0,031.8,024.8,10.1,0000.0,0009.74,0003.91,0003.44
2024-01-31 08:15:00,SystemResetWarning,0831.9,5.00,000.00,023.4,022.2,000.0,031.8,024.8,10.1,0000.0,0009.05,0003.80,0003.37
2024-01-31 08:16:00,SystemResetWarning,0831.9,5.00,000.00,023.4,022.2,000.0,031.8,024.8,10.2,0000.0,0008.52,0003.71,0003.31
2024-01-31 08:17:00,SystemResetWarning,0832.0,4.99,000.00,023.4,022.1,000.0,031.8,024.8,10.2,0000.0,0008.41,0003.64,0003.24
2024-01-31 08:18:00,SystemResetWarning,0832.0,5.00,000.00,023.4,022.1,000.0,031.8,024.8,10.1,0000.0,0008.37,0003.54,0003.15
2024-01-31 08:19:00,SystemResetWarning,0832.0,5.00,000.00,023.4,022.1,000.0,031.8,024.8,09.7,0000.0,0008.50,0003.47,0003.05
2024-01-31 08:20:00,SystemResetWarning,0832.0,5.00,000.00,023.4,022.1,000.0,031.8,024.8,09.4,0000.0,0008.27,0003.38,0002.92
2024-01-31 08:21:00,SystemResetWarning,0832.0,5.00,000.00,023.4,022.2,000.0,031.8,024.8,09.7,0000.0,0008.14,0003.30,0002.79
2024-01-31 08:22:00,SystemResetWarning,0832.0,5.00,000.00,023.4,022.2,000.0,031.8,024.8,09.9,0000.0,0007.12,0003.20,0002.68
2024-01-31 08:23:00,SystemResetWarning,0831.9,5.00,000.00,023.4,022.2,000.0,031.8,024.8,09.7,0000.0,0006.52,0003.13,0002.57
2024-01-31 08:24:00,SystemResetWarning,0831.9,5.00,000.00,023.4,022.3,000.0,031.7,024.7,09.6,0000.0,0005.53,0003.08,0002.49
2024-01-31 08:25:00,SystemResetWarning,0831.9,5.00,000.00,023.4,022.3,000.0,031.7,024.8,09.6,0000.0,0005.39,0002.98,0002.41
2024-01-31 08:26:00,SystemResetWarning,0831.9,5.00,000.00,023.4,022.2,000.0,031.7,024.7,09.3,0000.0,0005.53,0002.89,0002.32
2024-01-31 08:27:00,SystemResetWarning,0831.9,5.00,000.00,023.4,022.2,000.0,031.7,024.7,09.2,0000.0,0006.18,0002.79,0002.21
2024-01-31 08:28:00,SystemResetWarning,0831.9,5.00,000.00,023.4,022.2,000.0,031.7,024.7,09.1,0000.0,0006.75,0002.65,0002.11
2024-01-31 08:29:00,SystemResetWarning,0831.9,5.00,000.00,023.3,022.2,000.0,031.7,024.7,09.1,0000.0,0006.46,0002.54,0002.03
2024-01-31 08:30:00,SystemResetWarning,0831.9,5.00,000.00,023.3,022.2,000.0,031.7,024.7,09.0,0000.0,0005.85,0002.47,0001.99
2024-01-31 08:31:00,SystemResetWarning,0831.8,5.00,000.00,023.3,022.2,000.0,031.7,024.7,09.0,0000.0,0006.34,0002.40,0001.93
2024-01-31 08:32:00,SystemResetWarning,0832.0,5.00,000.00,023.3,022.2,000.0,031.7,024.7,08.9,0000.0,0006.48,0002.33,0001.87
2024-01-31 08:33:00,SystemResetWarning,0832.3,5.00,000.00,023.3,022.2,000.0,031.7,024.7,08.8,0000.0,0006.57,0002.33,0001.83
2024-01-31 08:34:00,SystemResetWarning,0832.2,5.00,000.00,023.3,022.1,000.0,031.7,024.7,08.8,0000.0,0007.55,0002.30,0001.80
2024-01-31 08:35:00,SystemResetWarning,0832.0,4.99,000.00,023.3,022.1,000.0,031.7,024.7,08.9,0000.0,0007.52,0002.27,0001.76
2024-01-31 08:36:00,SystemResetWarning,0831.7,5.01,000.00,023.3,022.1,000.0,031.7,024.7,09.0,0000.0,0007.51,0002.23,0001.73
2024-01-31 08:37:00,SystemResetWarning,0831.7,5.01,000.00,023.3,022.1,000.0,031.7,024.7,09.1,0000.0,0007.34,0002.18,0001.70
2024-01-31 08:38:00,SystemResetWarning,0831.7,5.01,000.00,023.3,022.1,000.0,031.7,024.7,09.1,0000.0,0006.91,0002.18,0001.70
2024-01-31 08:39:00,SystemResetWarning,0831.7,5.00,000.00,023.3,022.1,000.0,031.6,024.7,09.1,0000.0,0005.68,0002.21,0001.72
2024-01-31 08:40:00,SystemResetWarning,0831.7,5.00,000.00,023.3,022.1,000.0,031.6,024.6,09.3,0000.0,0005.83,0002.29,0001.74
2024-01-31 08:41:00,SystemResetWarning,0831.7,5.00,000.00,023.3,022.0,000.0,031.6,024.6,09.0,0000.0,0005.84,0002.32,0001.77
2024-01-31 08:42:00,SystemResetWarning,0831.7,5.00,000.00,023.3,022.0,000.0,031.6,024.6,09.0,0000.0,0005.33,0002.38,0001.82
2024-01-31 08:43:00,SystemResetWarning,0831.7,4.99,000.00,023.3,022.0,000.0,031.6,024.6,09.1,0000.0,0005.00,0002.45,0001.90
2024-01-31 08:44:00,SystemResetWarning,0831.7,4.99,000.00,023.2,022.0,000.0,031.6,024.6,08.8,0000.0,0005.02,0002.53,0001.98
2024-01-31 08:45:00,SystemResetWarning,0831.6,5.00,000.00,023.2,022.0,000.0,031.6,024.6,08.8,0000.0,0004.17,0002.58,0002.02
2024-01-31 08:46:00,SystemResetWarning,0831.6,5.01,000.00,023.2,022.0,000.0,031.6,024.6,08.8,0000.0,0003.69,0002.60,0002.05
2024-01-31 08:47:00,SystemResetWarning,0831.6,5.01,000.00,023.2,022.0,000.0,031.6,024.6,08.7,0000.0,0003.49,0002.56,0002.05
2024-01-31 08:48:00,SystemResetWarning,0831.7,5.00,000.00,023.2,022.0,000.0,031.6,024.6,08.9,0000.0,0003.58,0002.56,0002.04
2024-01-31 08:49:00,SystemResetWarning,0831.6,5.00,000.00,023.2,022.0,000.0,031.6,024.6,09.0,0000.0,0003.77,0002.54,0002.04
2024-01-31 08:50:00,SystemResetWarning,0831.6,4.99,000.00,023.2,022.0,000.0,031.6,024.6,09.1,0000.0,0003.79,0002.54,0002.02
2024-01-31 08:51:00,SystemResetWarning,0831.6,5.00,000.00,023.2,021.9,000.0,031.6,024.5,08.9,0000.0,0003.90,0002.54,0002.00
2024-01-31 08:52:00,SystemResetWarning,0831.7,4.99,000.00,023.2,021.9,000.0,031.6,024.5,09.2,0000.0,0003.89,0002.47,0001.94
2024-01-31 08:53:00,SystemResetWarning,0831.6,5.00,000.00,023.2,021.9,000.0,031.5,024.5,09.5,0000.0,0003.89,0002.39,0001.86
2024-01-31 08:54:00,SystemResetWarning,0831.6,5.01,000.00,023.1,021.9,000.0,031.5,024.5,09.4,0000.0,0003.80,0002.28,0001.76
2024-01-31 08:55:00,SystemResetWarning,0831.6,5.00,000.00,023.1,021.9,000.0,031.5,024.5,09.3,0000.0,0003.63,0002.14,0001.66
2024-01-31 08:56:00,SystemResetWarning,0831.6,5.00,000.00,023.1,021.9,000.0,031.5,024.5,09.2,0000.0,0003.49,0002.01,0001.57
2024-01-31 08:57:00,SystemResetWarning,0831.6,5.00,000.00,023.1,021.9,000.0,031.5,024.5,09.1,0000.0,0003.79,0001.93,0001.51
2024-01-31 08:58:00,SystemResetWarning,0831.6,4.99,000.00,023.1,021.9,000.0,031.5,024.5,09.1,0000.0,0003.83,0001.92,0001.48
2024-01-31 08:59:00,SystemResetWarning,0831.6,5.00,000.00,023.1,021.9,000.0,031.5,024.5,09.5,0000.0,0003.77,0001.89,0001.46
